Weather History for Sheridan, WY

Change the Weather History Date:

Tuesday, August 21, 2012

  Actual Average Record
Temperature  
Mean Temperature 72 °F 68 °F  
Max Temperature 94 °F 86 °F 101 °F (2010)
Min Temperature 50 °F 51 °F 38 °F (1974)
Degree Days  
Heating Degree Days 0 1  
Month to date heating degree days 16 15  
Since 1 June heating degree days 91 190  
Since 1 July heating degree days 16 41  
Cooling Degree Days 7 4  
Month to date cooling degree days 114 125  
Year to date cooling degree days 571 357  
Since 1 June cooling degree days 567 353  
Growing Degree Days 22 (Base 50)    
Moisture  
Dew Point 36 °F    
Average Humidity 37    
Maximum Humidity 63    
Minimum Humidity 11    
Precipitation  
Precipitation 0.00 in 0.02 in 0.92 in (1983)
Month to date precipitation 0.11 0.47  
Year to date precipitation 6.99 9.80  
Sea Level Pressure  
Sea Level Pressure 29.87 in    
Wind  
Wind Speed 4 mph (ESE)    
Max Wind Speed 15 mph    
Max Gust Speed 23 mph    
Visibility 10 miles    
Events      
T = Trace of Precipitation, MM = Missing Value Source: NWS Daily Summary

Daily Weather History Graph

Daily Weather History Graph

Search for Another Location

Airport:

Trip Planner

Search our weather history database for the weather conditions in past years. The results will help you decide how hot, cold, wet, or windy it might be!

Date:

Astronomy

Aug. 21, 2012 Rise Set
Actual Time 6:17 AM MDT 8:03 PM MDT
Civil Twilight 5:46 AM MDT 8:34 PM MDT
Nautical Twilight 5:08 AM MDT 9:11 PM MDT
Astronomical Twilight 4:27 AM MDT 9:52 PM MDT
Moon 11:06 AM MDT (8/21) 9:48 PM MDT (8/21)
Length of Visible Light 14h 47m
Length of Day
13h 45m
Waxing Crescent, 20% of the Moon is Illuminated
Aug 21
Waxing Crescent
Aug 24
First Quarter
Aug 31
Full
Sep 8
Last Quarter
Sep 15
New

Hourly Weather History & Observations

Time (MDT) Temp. Dew Point Humidity Pressure Visibility Wind Dir Wind Speed Gust Speed Precip Events Conditions
12:53 AM 61.0 °F 37.0 °F 41% 29.93 in 10.0 mi Calm Calm - N/A   Clear
1:53 AM 57.0 °F 37.9 °F 49% 29.93 in 10.0 mi Calm Calm - N/A   Clear
2:53 AM 55.9 °F 39.0 °F 53% 29.93 in 10.0 mi Calm Calm - N/A   Clear
3:53 AM 55.0 °F 37.0 °F 51% 29.93 in 10.0 mi Calm Calm - N/A   Clear
4:53 AM 51.1 °F 39.0 °F 63% 29.94 in 10.0 mi Calm Calm - N/A   Clear
5:53 AM 51.1 °F 39.9 °F 66% 29.94 in 10.0 mi Calm Calm - N/A   Clear
6:53 AM 52.0 °F 39.9 °F 63% 29.96 in 10.0 mi South 3.5 mph - N/A   Clear
7:53 AM 64.0 °F 41.0 °F 43% 29.96 in 10.0 mi Calm Calm - N/A   Clear
8:53 AM 73.0 °F 39.9 °F 30% 29.94 in 10.0 mi Calm Calm - N/A   Clear
9:53 AM 80.1 °F 45.0 °F 29% 29.94 in 10.0 mi Calm Calm - N/A   Clear
10:53 AM 86.0 °F 30.9 °F 14% 29.93 in 10.0 mi East 3.5 mph - N/A   Clear
11:53 AM 88.0 °F 30.0 °F 12% 29.91 in 10.0 mi Variable 5.8 mph - N/A   Clear
12:53 PM 90.0 °F 30.0 °F 12% 29.88 in 10.0 mi NE 5.8 mph - N/A   Clear
1:53 PM 91.0 °F 30.9 °F 12% 29.87 in 10.0 mi ENE 6.9 mph - N/A   Clear
2:53 PM 93.0 °F 30.9 °F 11% 29.84 in 10.0 mi NNW 4.6 mph - N/A   Clear
3:53 PM 93.0 °F 30.9 °F 11% 29.82 in 10.0 mi ESE 4.6 mph - N/A   Clear
4:53 PM 93.0 °F 32.0 °F 12% 29.81 in 10.0 mi Variable 5.8 mph - N/A   Clear
5:53 PM 91.0 °F 32.0 °F 12% 29.81 in 10.0 mi East 5.8 mph - N/A   Clear
6:53 PM 86.0 °F 34.0 °F 16% 29.80 in 10.0 mi ESE 5.8 mph - N/A   Clear
7:53 PM 73.0 °F 45.0 °F 37% 29.80 in 10.0 mi SW 3.5 mph - N/A   Clear
8:53 PM 69.1 °F 44.1 °F 40% 29.81 in 10.0 mi SSW 4.6 mph - N/A   Clear
9:53 PM 68.0 °F 41.0 °F 37% 29.79 in 10.0 mi South 3.5 mph - N/A   Clear
10:53 PM 72.0 °F 34.0 °F 25% 29.77 in 10.0 mi East 4.6 mph - N/A   Clear
11:53 PM 73.9 °F 33.1 °F 22% 29.74 in 10.0 mi SE 10.4 mph - N/A   Clear